Wind_Speed
78 83 89 95 101 106 108 106 102 97 93 90 89 89 89 91 94 98 103 106 109 110 109 107 104 100 98 95 92 88 85 82 79 75 72 68 66 63 60 57 55 53 53
82 88 94 100 103 103 99 93 88 85 83 82 82 83 84 85 86 88 92 96 101 105 108 109 108 106 104 101 98 95 91 88 85 81 77 73 70 67 64 61 58 56 54
86 93 98 100 99 93 87 84 81 80 80 81 81 82 83 84 85 86 87 90 93 98 103 106 109 109 108 107 104 101 97 94 90 87 83 79 75 71 68 65 62 59 56
90 96 98 96 91 85 82 80 79 79 79 80 81 82 82 83 84 85 86 87 90 92 96 101 106 108 110 110 109 106 103 100 96 92 88 84 80 76 72 69 66 62 59
93 96 95 90 84 81 78 77 77 77 78 79 78 75 72 72 74 78 82 85 87 90 93 96 102 107 110 111 112 111 109 106 102 98 94 89 85 80 77 73 70 66 63
94 94 90 84 80 77 76 75 74 75 77 76 71 66 63 63 65 67 72 78 84 87 90 94 99 105 109 113 114 114 113 111 107 103 99 95 90 85 81 78 74 71 67
93 90 85 80 77 75 74 73 74 75 73 70 66 60 56 56 58 59 62 67 74 82 88 92 97 102 107 112 116 117 116 115 112 108 104 100 95 91 86 82 78 75 71
90 86 81 77 75 73 72 72 74 74 69 65 62 59 55 49 47 48 51 57 64 74 83 90 94 99 104 110 115 118 119 118 116 113 109 105 101 95 90 86 82 79 75
87 83 78 75 73 71 71 72 74 72 66 59 57 56 55 50 41 36 37 44 55 66 76 85 90 94 100 106 113 118 121 122 121 118 114 110 106 100 95 90 86 83 79
84 80 75 73 72 71 71 72 73 69 64 57 51 49 48 46 41 31 25 30 42 57 70 79 85 90 94 101 108 115 121 124 124 122 119 115 110 105 100 95 90 86 82
81 77 73 72 71 70 70 71 71 66 60 55 49 44 40 37 35 30 21 19 30 46 62 71 78 83 87 93 101 110 118 124 126 125 123 119 115 110 104 99 94 90 86
78 74 72 71 70 70 70 70 70 65 58 51 46 42 38 34 30 26 20 16 21 35 51 63 71 77 80 85 93 101 111 120 125 127 125 122 119 114 109 103 98 93 89
76 72 70 70 69 69 69 69 69 63 57 50 44 39 34 31 27 23 19 15 17 27 42 55 65 73 76 79 84 92 102 112 120 125 126 125 122 117 112 107 101 96 92
75 71 69 69 69 69 68 69 68 62 56 48 42 37 32 28 25 22 19 15 15 22 34 47 59 69 73 74 77 83 91 101 112 120 125 126 124 120 115 110 105 100 95
74 70 69 68 68 68 68 68 67 62 55 48 41 35 31 26 23 21 18 15 14 19 29 42 54 63 68 69 70 74 81 91 102 113 121 124 124 121 118 113 108 103 98
73 70 68 68 68 68 67 68 67 61 54 47 41 35 30 25 22 20 18 16 15 17 26 37 48 58 63 64 65 66 71 80 92 104 114 121 123 122 119 115 111 106 100
73 69 68 67 67 67 67 67 66 60 53 47 41 35 29 24 20 18 16 15 15 16 22 33 43 53 59 60 60 60 62 69 81 94 107 116 121 122 120 117 113 108 103
72 69 67 67 66 66 66 66 64 59 53 47 40 35 28 23 19 17 15 13 13 14 18 27 37 47 54 57 57 57 58 62 72 85 99 110 118 121 120 118 115 111 106
71 68 67 66 65 65 65 65 64 58 52 47 40 34 28 23 18 15 13 12 11 12 15 23 32 42 49 53 54 54 54 57 64 77 92 104 114 119 119 118 116 113 108
70 67 66 65 65 64 64 64 63 57 52 47 41 34 28 23 18 15 12 11 9 10 13 19 27 36 43 49 50 51 51 53 59 70 84 98 108 116 118 117 115 113 109
70 66 65 64 64 63 63 62 62 58 52 47 41 34 28 23 18 15 12 10 9 8 11 15 23 30 38 44 47 48 49 50 54 64 78 92 103 112 116 116 115 113 110
69 65 64 63 63 62 62 61 62 58 52 47 41 35 29 23 20 16 13 11 9 6 8 12 18 25 32 39 43 45 45 47 50 59 72 86 98 108 113 114 114 112 110
69 65 63 62 62 61 60 60 60 57 51 45 40 34 29 25 21 18 15 12 9 6 6 9 15 22 28 34 39 41 43 43 47 55 67 79 93 103 110 112 112 111 109
69 65 62 61 60 60 59 58 58 56 50 44 39 34 29 25 22 19 16 14 11 8 5 6 12 18 25 30 35 38 40 42 46 54 64 74 88 97 106 109 110 110 108
69 65 62 60 59 59 58 56 56 55 50 44 38 34 29 25 22 20 18 15 13 10 6 4 8 14 21 27 32 36 38 41 46 53 62 71 82 93 101 104 107 108 107
69 65 61 59 58 57 57 55 54 54 50 44 38 33 29 25 22 20 19 17 15 12 8 4 4 10 17 23 29 33 36 40 47 53 61 69 78 89 96 100 102 105 105
Wind_Direction
309 308 307 305 303 300 298 297 294 292 289 286 283 279 276 272 268 264 260 257 253 250 246 243 240 237 236 235 233 231 230 230 229 228 228 227 227 227 227 227 227 226 225
312 311 309 307 305 304 302 301 298 296 293 289 285 281 277 272 268 263 258 254 251 248 245 242 239 236 234 233 232 230 229 228 228 227 226 226 225 225 225 226 226 225 225
314 313 311 310 309 308 307 305 303 300 297 294 290 285 280 274 269 263 258 253 248 244 241 239 237 235 233 231 230 229 228 227 226 226 225 225 224 223 223 224 225 224 224
317 316 315 314 313 312 311 309 307 304 302 299 295 290 284 277 270 263 257 252 247 242 238 235 233 232 230 229 228 227 226 225 225 224 224 223 223 222 222 222 222 223 223
320 319 318 318 317 316 314 312 311 309 306 304 300 295 289 282 274 265 257 251 245 241 236 232 230 228 227 226 225 224 224 223 223 223 222 222 221 221 220 220 220 221 222
323 322 322 321 320 319 318 316 314 313 311 309 305 301 295 289 281 271 260 251 244 239 234 230 226 225 223 222 222 221 221 221 221 221 221 220 220 219 219 218 218 219 220
326 326 325 325 324 323 322 320 319 318 316 313 310 306 302 297 289 277 263 251 242 236 232 228 224 222 220 219 219 218 218 218 219 219 219 219 218 218 217 217 217 217 218
329 329 328 328 327 326 325 324 323 323 321 318 316 313 311 306 297 285 268 251 240 232 228 225 223 220 219 217 216 216 216 216 216 217 217 217 217 216 216 215 215 215 216
332 332 331 331 330 330 329 328 328 327 325 323 320 319 319 319 313 299 277 252 237 229 225 223 221 219 217 216 215 214 214 214 214 215 215 215 215 215 214 214 214 214 215
335 334 334 333 333 333 332 332 332 330 328 326 323 322 322 324 325 317 291 259 235 226 222 220 219 217 216 215 215 214 213 212 212 213 213 213 213 213 213 212 213 213 213
337 337 337 336 336 335 335 335 335 333 331 328 325 323 323 325 327 327 313 272 239 225 220 218 217 216 216 215 215 214 213 212 211 211 211 211 212 212 212 211 211 211 212
340 339 339 339 338 338 338 338 339 337 334 330 326 324 323 324 327 327 321 291 250 229 219 216 215 215 215 215 215 215 214 213 211 210 210 210 210 210 210 210 210 210 211
342 341 341 341 341 340 341 341 341 340 336 332 328 324 322 320 321 321 319 300 262 233 220 215 213 213 213 214 214 215 215 214 211 210 208 208 208 209 209 209 209 209 210
344 344 343 344 343 343 343 344 344 342 339 335 330 325 321 316 314 313 311 301 266 236 222 215 212 212 213 214 214 215 215 215 213 210 208 207 207 207 207 207 207 208 209
346 346 346 346 346 345 346 346 346 345 343 339 334 328 322 316 311 306 302 294 272 237 223 217 213 212 212 213 214 215 215 215 214 211 209 207 206 206 206 206 206 207 208
348 348 347 348 348 347 348 348 349 348 346 343 339 333 326 318 311 304 298 288 272 244 225 219 214 212 212 213 214 215 216 216 214 212 210 207 205 204 205 204 205 205 206
350 349 349 349 349 349 350 351 351 350 349 346 343 338 331 324 314 306 298 289 274 252 229 220 216 213 212 213 213 214 215 216 215 213 210 207 205 204 203 203 204 204 205
351 351 351 351 351 351 352 353 353 352 351 350 347 343 337 330 321 311 303 292 277 256 234 221 217 214 213 212 213 214 215 216 215 213 211 208 205 203 202 202 203 203 203
353 352 352 352 353 353 354 355 355 354 354 353 351 348 344 338 330 319 311 300 281 257 235 220 217 214 213 212 212 214 215 217 215 213 211 208 206 203 202 201 202 202 202
354 353 353 354 354 354 355 356 357 357 357 356 354 352 349 346 340 330 321 311 289 258 233 220 215 213 213 212 212 214 216 217 216 213 210 208 206 203 201 201 201 201 202
356 355 354 355 355 356 356 357 358 359 360 359 358 356 354 352 349 342 333 323 304 266 236 220 213 211 212 212 212 214 216 217 215 212 209 206 205 203 200 200 200 201 201
357 356 355 356 357 357 357 358 359 1 1 1 0 360 359 359 356 353 345 334 320 288 241 221 212 210 211 211 212 214 215 216 214 210 207 205 204 202 200 199 200 200 201
358 357 356 357 358 358 359 360 1 2 2 2 3 3 4 5 5 2 357 348 334 310 259 228 216 211 210 210 211 213 214 214 211 207 205 203 202 201 200 198 199 200 201
358 358 358 358 358 359 360 1 2 3 3 3 4 6 7 8 9 8 5 359 351 337 296 242 219 210 207 208 209 210 212 210 206 203 201 200 200 200 199 198 199 200 201
358 359 359 359 359 360 0 1 2 4 4 4 6 8 10 11 13 13 12 9 4 356 338 278 221 208 205 205 206 207 208 205 201 197 196 196 197 198 198 198 199 200 201
358 359 359 359 0 0 1 1 3 4 5 6 7 9 11 12 15 17 17 16 13 9 2 341 230 207 202 200 200 200 200 197 194 192 191 191 194 196 197 197 198 200 201
Height
5713 5700 5686 5670 5652 5634 5616 5599 5585 5572 5562 5553 5546 5540 5537 5536 5537 5541 5549 5560 5572 5587 5603 5618 5634 5648 5662 5675 5688 5701 5714 5726 5737 5748 5759 5769 5779 5789 5797 5805 5812 5819 5826
5694 5679 5662 5643 5623 5603 5584 5568 5555 5543 5533 5524 5517 5510 5505 5503 5503 5505 5510 5520 5531 5546 5562 5580 5597 5614 5631 5646 5662 5677 5691 5704 5717 5729 5741 5753 5764 5774 5784 5793 5801 5809 5816
5674 5656 5636 5615 5594 5574 5557 5543 5530 5518 5506 5496 5487 5479 5472 5469 5468 5470 5474 5482 5493 5507 5523 5540 5558 5577 5597 5615 5633 5649 5666 5681 5695 5709 5722 5735 5748 5759 5770 5781 5790 5798 5806
5652 5632 5610 5589 5568 5550 5534 5520 5507 5494 5481 5468 5457 5448 5439 5433 5431 5433 5439 5446 5456 5470 5486 5502 5520 5540 5560 5581 5601 5620 5638 5656 5672 5688 5703 5717 5731 5743 5755 5767 5777 5787 5795
5630 5609 5587 5566 5547 5530 5514 5499 5486 5471 5457 5442 5430 5419 5408 5400 5396 5397 5401 5410 5420 5435 5451 5467 5484 5502 5523 5546 5568 5589 5610 5629 5648 5665 5682 5697 5712 5726 5740 5752 5764 5775 5784
5610 5588 5566 5546 5528 5512 5496 5481 5467 5452 5434 5417 5404 5394 5384 5373 5366 5364 5366 5374 5387 5401 5416 5432 5449 5467 5488 5511 5534 5558 5580 5602 5622 5641 5660 5677 5693 5709 5723 5737 5750 5762 5772
5591 5569 5548 5529 5512 5495 5479 5463 5447 5432 5415 5396 5382 5373 5365 5353 5341 5336 5336 5343 5354 5367 5382 5398 5416 5435 5456 5479 5502 5527 5551 5574 5595 5616 5636 5655 5673 5690 5706 5721 5735 5748 5759
5573 5552 5532 5514 5497 5480 5464 5447 5430 5413 5397 5379 5363 5351 5343 5336 5324 5313 5311 5315 5325 5337 5352 5369 5387 5407 5427 5449 5473 5497 5521 5545 5568 5591 5612 5633 5652 5670 5688 5704 5719 5733 5746
5557 5537 5517 5500 5483 5466 5450 5432 5414 5396 5380 5367 5351 5336 5323 5314 5307 5300 5292 5294 5301 5313 5328 5345 5363 5382 5402 5423 5445 5468 5492 5517 5540 5564 5587 5610 5630 5650 5669 5686 5703 5718 5732
5543 5523 5505 5487 5470 5453 5436 5419 5401 5382 5366 5354 5343 5330 5317 5304 5294 5288 5284 5282 5285 5295 5307 5323 5342 5361 5381 5401 5421 5441 5464 5488 5513 5538 5562 5586 5608 5630 5650 5669 5686 5703 5718
5531 5512 5494 5477 5459 5443 5425 5408 5390 5372 5355 5342 5331 5322 5313 5303 5292 5283 5278 5276 5277 5283 5293 5308 5326 5345 5363 5381 5399 5417 5438 5461 5486 5511 5537 5562 5585 5608 5630 5650 5669 5687 5703
5521 5502 5484 5467 5450 5433 5416 5398 5380 5363 5347 5334 5323 5313 5305 5298 5290 5282 5277 5273 5273 5275 5283 5296 5312 5329 5346 5362 5378 5396 5414 5435 5460 5486 5512 5538 5563 5587 5610 5631 5651 5671 5688
5513 5494 5476 5459 5442 5425 5408 5390 5372 5355 5340 5327 5316 5307 5299 5293 5286 5280 5275 5272 5270 5271 5277 5287 5299 5314 5328 5343 5359 5376 5394 5414 5438 5462 5488 5515 5541 5566 5590 5614 5635 5655 5673
5504 5486 5469 5452 5435 5418 5400 5383 5365 5348 5333 5320 5310 5301 5294 5288 5283 5278 5273 5269 5268 5269 5272 5280 5290 5302 5316 5331 5347 5362 5379 5398 5418 5441 5466 5493 5520 5546 5571 5596 5618 5639 5659
5497 5479 5462 5445 5429 5411 5394 5377 5360 5343 5328 5315 5305 5296 5289 5284 5279 5275 5271 5267 5266 5266 5270 5275 5283 5295 5309 5323 5338 5352 5368 5384 5402 5423 5447 5473 5500 5527 5553 5578 5601 5624 5644
5490 5473 5457 5440 5423 5407 5389 5372 5355 5338 5324 5311 5301 5292 5285 5279 5275 5271 5268 5266 5264 5264 5267 5271 5279 5289 5302 5316 5330 5344 5358 5372 5388 5408 5430 5455 5482 5509 5535 5560 5584 5608 5629
5485 5468 5452 5435 5419 5402 5386 5369 5352 5336 5321 5309 5298 5289 5282 5276 5272 5269 5266 5264 5262 5262 5264 5269 5275 5285 5296 5309 5323 5336 5348 5361 5376 5393 5414 5438 5464 5491 5517 5543 5568 5591 5614
5480 5463 5447 5432 5415 5399 5383 5367 5350 5334 5320 5308 5297 5287 5280 5274 5270 5267 5264 5262 5261 5261 5262 5266 5272 5281 5292 5304 5316 5329 5340 5351 5364 5381 5400 5423 5448 5474 5501 5527 5552 5576 5599
5476 5459 5444 5428 5413 5397 5381 5365 5349 5334 5320 5307 5296 5287 5279 5273 5268 5265 5263 5261 5260 5260 5261 5264 5269 5277 5287 5298 5310 5322 5332 5343 5355 5370 5388 5410 5434 5460 5486 5512 5538 5562 5586
5473 5457 5441 5426 5411 5395 5379 5364 5350 5334 5320 5307 5296 5287 5279 5273 5268 5265 5263 5261 5259 5259 5260 5262 5267 5274 5283 5294 5305 5316 5326 5336 5347 5360 5377 5398 5422 5447 5473 5500 5527 5551 5573
5470 5454 5439 5424 5409 5393 5379 5364 5350 5334 5320 5308 5297 5288 5280 5274 5269 5265 5263 5261 5260 5259 5259 5261 5265 5271 5279 5289 5299 5309 5319 5329 5340 5352 5368 5388 5412 5437 5462 5488 5512 5536 5560
5468 5453 5438 5423 5407 5393 5378 5363 5348 5334 5321 5310 5299 5290 5282 5276 5271 5267 5264 5262 5260 5259 5259 5261 5264 5269 5276 5284 5294 5303 5313 5322 5333 5345 5361 5380 5401 5426 5452 5478 5503 5527 5549
5467 5452 5437 5422 5407 5393 5379 5365 5350 5336 5324 5313 5303 5293 5285 5279 5273 5269 5266 5263 5261 5260 5260 5261 5263 5267 5273 5280 5289 5298 5307 5316 5327 5338 5353 5373 5394 5419 5444 5469 5493 5516 5539
5466 5451 5437 5422 5408 5394 5380 5367 5353 5340 5327 5316 5306 5297 5289 5282 5277 5272 5268 5265 5263 5261 5260 5260 5262 5265 5270 5276 5283 5292 5301 5311 5320 5332 5347 5367 5388 5413 5437 5461 5484 5507 5529
5465 5450 5436 5422 5408 5394 5381 5368 5356 5343 5330 5319 5309 5301 5293 5286 5281 5276 5272 5268 5265 5263 5261 5261 5261 5263 5267 5272 5279 5287 5296 5305 5316 5328 5343 5362 5383 5406 5430 5454 5477 5499 5520
5463 5449 5435 5421 5408 5395 5382 5370 5358 5347 5334 5323 5313 5304 5297 5290 5285 5280 5275 5272 5268 5265 5263 5262 5262 5263 5266 5270 5276 5283 5292 5301 5312 5325 5340 5359 5378 5400 5424 5447 5469 5491 5512